Time,TemperatureF,DewpointF,PressureIn,WindDirection,WindDirectionDegrees,WindSpeedMPH,WindSpeedGustMPH,Humidity,HourlyPrecipIn,Conditions,Clouds,dailyrainin,SoftwareType,DateUTC
2013-01-19 00:00:00,53.0,29.9,30.09,NNW,331,2.0,4.0,41,0.00,,,0.00,WeatherCatV1.13B119,2013-01-19 08:00:00,
2013-01-19 00:05:00,53.0,29.9,30.09,NNW,338,2.0,5.0,41,0.00,,,0.00,WeatherCatV1.13B119,2013-01-19 08:05:00,
2013-01-19 00:10:00,53.0,29.9,30.09,NNW,338,2.0,5.0,41,0.00,,,0.00,WeatherCatV1.13B119,2013-01-19 08:10:00,
2013-01-19 00:15:00,53.0,29.9,30.09,NNW,338,2.0,5.0,41,0.00,,,0.00,WeatherCatV1.13B119,2013-01-19 08:15:00,
2013-01-19 00:20:00,52.3,30.5,30.09,NW,315,2.0,4.0,43,0.00,,,0.00,WeatherCatV1.13B119,2013-01-19 08:20:00,
2013-01-19 00:25:00,52.3,30.5,30.09,NW,315,2.0,4.0,43,0.00,,,0.00,WeatherCatV1.13B119,2013-01-19 08:25:00,
2013-01-19 00:30:00,52.3,30.5,30.09,NW,315,2.0,4.0,43,0.00,,,0.00,WeatherCatV1.13B119,2013-01-19 08:30:00,
2013-01-19 00:35:00,52.8,29.8,30.09,NW,315,3.0,7.0,41,0.00,,,0.00,WeatherCatV1.13B119,2013-01-19 08:35:00,
2013-01-19 00:40:00,52.8,29.8,30.09,NW,315,3.0,7.0,41,0.00,,,0.00,WeatherCatV1.13B119,2013-01-19 08:40:00,
2013-01-19 00:45:00,52.8,29.8,30.09,NW,315,3.0,7.0,41,0.00,,,0.00,WeatherCatV1.13B119,2013-01-19 08:45:00,
2013-01-19 00:50:00,52.9,29.2,30.09,NW,315,2.0,5.0,40,0.00,,,0.00,WeatherCatV1.13B119,2013-01-19 08:50:00,
2013-01-19 00:55:00,52.9,29.2,30.09,NW,315,2.0,5.0,40,0.00,,,0.00,WeatherCatV1.13B119,2013-01-19 08:55:00,
2013-01-19 01:00:00,52.9,29.2,30.09,NW,315,2.0,5.0,40,0.00,,,0.00,WeatherCatV1.13B119,2013-01-19 09:00:00,
2013-01-19 01:05:00,52.9,29.2,30.09,NW,315,2.0,4.0,40,0.00,,,0.00,WeatherCatV1.13B119,2013-01-19 09:05:00,
2013-01-19 01:10:00,52.9,29.2,30.09,NW,315,2.0,4.0,40,0.00,,,0.00,WeatherCatV1.13B119,2013-01-19 09:10:00,
2013-01-19 01:15:00,52.9,29.2,30.09,NW,315,2.0,4.0,40,0.00,,,0.00,WeatherCatV1.13B119,2013-01-19 09:15:00,
2013-01-19 01:20:00,52.4,28.8,30.09,NNW,338,2.0,5.0,40,0.00,,,0.00,WeatherCatV1.13B119,2013-01-19 09:20:00,
2013-01-19 01:25:00,52.4,28.8,30.09,NNW,338,2.0,5.0,40,0.00,,,0.00,WeatherCatV1.13B119,2013-01-19 09:25:00,
2013-01-19 01:30:00,52.4,28.8,30.09,NNW,338,2.0,5.0,40,0.00,,,0.00,WeatherCatV1.13B119,2013-01-19 09:30:00,
2013-01-19 01:35:00,52.9,28.6,30.09,NW,315,3.0,7.0,39,0.00,,,0.00,WeatherCatV1.13B119,2013-01-19 09:35:00,
2013-01-19 01:40:00,52.9,28.6,30.09,NW,315,3.0,7.0,39,0.00,,,0.00,WeatherCatV1.13B119,2013-01-19 09:40:00,
2013-01-19 01:45:00,52.9,28.6,30.09,NW,315,3.0,7.0,39,0.00,,,0.00,WeatherCatV1.13B119,2013-01-19 09:45:00,
2013-01-19 01:50:00,52.2,28.6,30.10,NW,315,2.0,5.0,40,0.00,,,0.00,WeatherCatV1.13B119,2013-01-19 09:50:00,
2013-01-19 01:55:00,52.2,28.6,30.10,NW,315,2.0,5.0,40,0.00,,,0.00,WeatherCatV1.13B119,2013-01-19 09:55:00,
2013-01-19 02:00:00,52.2,28.6,30.10,NW,315,2.0,5.0,40,0.00,,,0.00,WeatherCatV1.13B119,2013-01-19 10:00:00,
2013-01-19 02:05:00,52.3,28.7,30.10,NW,315,3.0,5.0,40,0.00,,,0.00,WeatherCatV1.13B119,2013-01-19 10:05:00,
2013-01-19 02:10:00,52.3,28.7,30.10,NW,315,3.0,5.0,40,0.00,,,0.00,WeatherCatV1.13B119,2013-01-19 10:10:00,
2013-01-19 02:15:00,52.3,28.7,30.10,NW,315,3.0,5.0,40,0.00,,,0.00,WeatherCatV1.13B119,2013-01-19 10:15:00,
2013-01-19 02:20:00,51.8,28.9,30.10,NW,315,2.0,5.0,41,0.00,,,0.00,WeatherCatV1.13B119,2013-01-19 10:20:00,
2013-01-19 02:25:00,51.8,28.9,30.10,NW,315,2.0,5.0,41,0.00,,,0.00,WeatherCatV1.13B119,2013-01-19 10:25:00,
2013-01-19 02:30:00,51.8,28.9,30.10,NW,315,2.0,5.0,41,0.00,,,0.00,WeatherCatV1.13B119,2013-01-19 10:30:00,
2013-01-19 02:35:00,51.7,29.4,30.10,NW,315,3.0,6.0,42,0.00,,,0.00,WeatherCatV1.13B119,2013-01-19 10:35:00,
2013-01-19 02:40:00,51.7,29.4,30.10,NW,315,3.0,6.0,42,0.00,,,0.00,WeatherCatV1.13B119,2013-01-19 10:40:00,
2013-01-19 02:45:00,51.7,29.4,30.10,NW,315,3.0,6.0,42,0.00,,,0.00,WeatherCatV1.13B119,2013-01-19 10:45:00,
2013-01-19 02:50:00,51.0,30.4,30.11,WNW,292,3.0,5.0,45,0.00,,,0.00,WeatherCatV1.13B119,2013-01-19 10:50:00,
2013-01-19 02:55:00,51.0,30.4,30.11,WNW,292,3.0,5.0,45,0.00,,,0.00,WeatherCatV1.13B119,2013-01-19 10:55:00,
2013-01-19 03:00:00,51.0,30.4,30.11,WNW,292,3.0,5.0,45,0.00,,,0.00,WeatherCatV1.13B119,2013-01-19 11:00:00,
2013-01-19 03:05:00,49.7,30.8,30.11,WNW,292,3.0,4.0,48,0.00,,,0.00,WeatherCatV1.13B119,2013-01-19 11:05:00,
2013-01-19 03:10:00,49.7,30.8,30.11,WNW,292,3.0,4.0,48,0.00,,,0.00,WeatherCatV1.13B119,2013-01-19 11:10:00,
2013-01-19 03:15:00,49.7,30.8,30.11,WNW,292,3.0,4.0,48,0.00,,,0.00,WeatherCatV1.13B119,2013-01-19 11:15:00,
2013-01-19 03:20:00,50.4,29.3,30.11,NW,315,3.0,6.0,44,0.00,,,0.00,WeatherCatV1.13B119,2013-01-19 11:20:00,
2013-01-19 03:25:00,50.4,29.3,30.11,NW,315,3.0,6.0,44,0.00,,,0.00,WeatherCatV1.13B119,2013-01-19 11:25:00,
2013-01-19 03:30:00,50.4,29.3,30.11,NW,315,3.0,6.0,44,0.00,,,0.00,WeatherCatV1.13B119,2013-01-19 11:30:00,
2013-01-19 03:35:00,51.2,30.0,30.11,NW,315,2.0,5.0,44,0.00,,,0.00,WeatherCatV1.13B119,2013-01-19 11:35:00,
2013-01-19 03:40:00,51.2,30.0,30.11,NW,315,2.0,5.0,44,0.00,,,0.00,WeatherCatV1.13B119,2013-01-19 11:40:00,
2013-01-19 03:45:00,51.2,30.0,30.11,NW,315,2.0,5.0,44,0.00,,,0.00,WeatherCatV1.13B119,2013-01-19 11:45:00,
2013-01-19 03:50:00,50.5,30.0,30.11,NW,315,2.0,5.0,45,0.00,,,0.00,WeatherCatV1.13B119,2013-01-19 11:50:00,
2013-01-19 03:55:00,50.5,30.0,30.11,NW,315,2.0,5.0,45,0.00,,,0.00,WeatherCatV1.13B119,2013-01-19 11:55:00,
2013-01-19 04:00:00,50.5,30.0,30.11,NW,315,2.0,5.0,45,0.00,,,0.00,WeatherCatV1.13B119,2013-01-19 12:00:00,
2013-01-19 04:05:00,50.6,30.1,30.11,NNW,338,2.0,8.0,45,0.00,,,0.00,WeatherCatV1.13B119,2013-01-19 12:05:00,
2013-01-19 04:10:00,50.6,30.1,30.11,NNW,338,2.0,8.0,45,0.00,,,0.00,WeatherCatV1.13B119,2013-01-19 12:10:00,
2013-01-19 04:15:00,50.6,30.1,30.11,NNW,338,2.0,8.0,45,0.00,,,0.00,WeatherCatV1.13B119,2013-01-19 12:15:00,
2013-01-19 04:20:00,50.6,30.6,30.11,NW,315,2.0,9.0,46,0.00,,,0.00,WeatherCatV1.13B119,2013-01-19 12:20:00,
2013-01-19 04:25:00,50.6,30.6,30.11,NW,315,2.0,9.0,46,0.00,,,0.00,WeatherCatV1.13B119,2013-01-19 12:25:00,
2013-01-19 04:30:00,50.6,30.6,30.11,NW,315,2.0,9.0,46,0.00,,,0.00,WeatherCatV1.13B119,2013-01-19 12:30:00,
2013-01-19 04:35:00,50.0,31.1,30.11,NW,315,2.0,7.0,48,0.00,,,0.00,WeatherCatV1.13B119,2013-01-19 12:35:00,
2013-01-19 04:40:00,50.0,31.1,30.11,NW,315,2.0,7.0,48,0.00,,,0.00,WeatherCatV1.13B119,2013-01-19 12:40:00,
2013-01-19 04:45:00,50.0,31.1,30.11,NW,315,2.0,7.0,48,0.00,,,0.00,WeatherCatV1.13B119,2013-01-19 12:45:00,
2013-01-19 04:50:00,49.5,32.6,30.11,NW,315,3.0,8.0,52,0.00,,,0.00,WeatherCatV1.13B119,2013-01-19 12:50:00,
2013-01-19 04:55:00,49.5,32.6,30.11,NW,315,3.0,8.0,52,0.00,,,0.00,WeatherCatV1.13B119,2013-01-19 12:55:00,
2013-01-19 05:09:00,49.5,32.6,30.11,NW,315,3.0,8.0,52,0.00,,,0.00,WeatherCatV1.13B119,2013-01-19 13:09:00,
2013-01-19 05:24:00,49.1,33.2,30.12,NW,310,3.0,7.0,54,0.00,,,0.00,WeatherCatV1.13B119,2013-01-19 13:24:00,
2013-01-19 05:39:00,48.8,33.4,30.12,NW,322,3.0,6.0,55,0.00,,,0.00,WeatherCatV1.13B119,2013-01-19 13:39:00,
2013-01-19 05:54:00,48.5,33.5,30.12,NNW,336,2.0,5.0,56,0.00,,,0.00,WeatherCatV1.13B119,2013-01-19 13:54:00,
2013-01-19 06:09:00,51.8,38.8,30.12,West,267,4.0,4.0,61,0.00,,,0.00,WeatherCatV1.13B119,2013-01-19 14:09:00,
2013-01-19 06:24:00,52.8,34.7,30.13,NW,317,3.0,5.0,50,0.00,,,0.00,WeatherCatV1.13B119,2013-01-19 14:24:00,
2013-01-19 06:39:00,50.3,33.8,30.13,NW,319,1.0,4.0,53,0.00,,,0.00,WeatherCatV1.13B119,2013-01-19 14:39:00,
2013-01-19 06:54:00,49.6,33.6,30.13,NW,304,4.0,5.0,54,0.00,,,0.00,WeatherCatV1.13B119,2013-01-19 14:54:00,
2013-01-19 07:09:00,49.1,35.0,30.13,NW,308,2.0,6.0,58,0.00,,,0.00,WeatherCatV1.13B119,2013-01-19 15:09:00,
2013-01-19 07:24:00,55.4,41.7,30.14,NNW,329,3.0,4.0,60,0.00,,,0.00,WeatherCatV1.13B119,2013-01-19 15:24:00,
2013-01-19 07:39:00,56.7,37.2,30.14,NNW,327,2.0,5.0,48,0.00,,,0.00,WeatherCatV1.13B119,2013-01-19 15:39:00,
2013-01-19 07:54:00,52.8,35.2,30.14,NNW,327,1.0,5.0,51,0.00,,,0.00,WeatherCatV1.13B119,2013-01-19 15:54:00,
2013-01-19 08:09:00,52.8,39.7,30.14,NNW,329,3.0,7.0,61,0.00,,,0.00,WeatherCatV1.13B119,2013-01-19 16:09:00,
2013-01-19 08:24:00,55.7,42.9,30.14,NW,317,2.0,6.0,62,0.00,,,0.00,WeatherCatV1.13B119,2013-01-19 16:24:00,
2013-01-19 08:39:00,54.4,35.1,30.15,NW,314,2.0,5.0,48,0.00,,,0.00,WeatherCatV1.13B119,2013-01-19 16:39:00,
2013-01-19 08:54:00,53.9,35.7,30.15,NW,324,4.0,7.0,50,0.00,,,0.00,WeatherCatV1.13B119,2013-01-19 16:54:00,
2013-01-19 09:09:00,54.2,37.4,30.16,NNW,331,3.0,5.0,53,0.00,,,0.00,WeatherCatV1.13B119,2013-01-19 17:09:00,
2013-01-19 09:24:00,54.2,37.4,30.16,NNW,337,0.0,4.0,53,0.00,,,0.00,WeatherCatV1.13B119,2013-01-19 17:24:00,
2013-01-19 09:39:00,53.9,36.7,30.17,NNW,330,3.0,5.0,52,0.00,,,0.00,WeatherCatV1.13B119,2013-01-19 17:39:00,
2013-01-19 09:54:00,54.7,36.9,30.17,NW,321,2.0,7.0,51,0.00,,,0.00,WeatherCatV1.13B119,2013-01-19 17:54:00,
2013-01-19 10:09:00,55.2,36.9,30.17,West,278,2.0,4.0,50,0.00,,,0.00,WeatherCatV1.13B119,2013-01-19 18:09:00,
2013-01-19 10:24:00,55.7,35.8,30.17,NW,309,0.0,4.0,47,0.00,,,0.00,WeatherCatV1.13B119,2013-01-19 18:24:00,
2013-01-19 10:39:00,55.5,35.1,30.17,NNW,334,3.0,10.0,46,0.00,,,0.00,WeatherCatV1.13B119,2013-01-19 18:39:00,
2013-01-19 10:54:00,55.9,34.9,30.16,NNW,333,2.0,6.0,45,0.00,,,0.00,WeatherCatV1.13B119,2013-01-19 18:54:00,
2013-01-19 11:09:00,56.4,34.8,30.16,NNW,332,2.0,9.0,44,0.00,,,0.00,WeatherCatV1.13B119,2013-01-19 19:09:00,
2013-01-19 11:24:00,57.1,34.8,30.15,NW,323,1.0,5.0,43,0.00,,,0.00,WeatherCatV1.13B119,2013-01-19 19:24:00,
2013-01-19 11:39:00,57.4,34.5,30.14,North,0,0.0,5.0,42,0.00,,,0.00,WeatherCatV1.13B119,2013-01-19 19:39:00,
2013-01-19 11:54:00,57.8,35.5,30.14,NNW,333,2.0,5.0,43,0.00,,,0.00,WeatherCatV1.13B119,2013-01-19 19:54:00,
2013-01-19 12:09:00,57.8,35.5,30.13,North,350,6.0,6.0,43,0.00,,,0.00,WeatherCatV1.13B119,2013-01-19 20:09:00,
2013-01-19 12:24:00,58.1,35.7,30.12,NNW,342,1.0,7.0,43,0.00,,,0.00,WeatherCatV1.13B119,2013-01-19 20:24:00,
2013-01-19 12:39:00,58.3,36.5,30.12,NNW,342,5.0,9.0,44,0.00,,,0.00,WeatherCatV1.13B119,2013-01-19 20:39:00,
2013-01-19 12:54:00,58.2,36.4,30.12,North,350,1.0,6.0,44,0.00,,,0.00,WeatherCatV1.13B119,2013-01-19 20:54:00,
2013-01-19 13:09:00,58.5,37.2,30.11,NNW,335,4.0,6.0,45,0.00,,,0.00,WeatherCatV1.13B119,2013-01-19 21:09:00,
2013-01-19 13:24:00,58.3,37.6,30.11,NW,322,5.0,5.0,46,0.00,,,0.00,WeatherCatV1.13B119,2013-01-19 21:24:00,
2013-01-19 13:39:00,58.4,37.7,30.10,NW,315,1.0,5.0,46,0.00,,,0.00,WeatherCatV1.13B119,2013-01-19 21:39:00,
2013-01-19 13:54:00,58.5,37.2,30.10,North,351,3.0,5.0,45,0.00,,,0.00,WeatherCatV1.13B119,2013-01-19 21:54:00,
2013-01-19 14:09:00,58.2,38.1,30.09,NNW,339,2.0,6.0,47,0.00,,,0.00,WeatherCatV1.13B119,2013-01-19 22:09:00,
2013-01-19 14:24:00,58.1,38.5,30.09,NW,323,3.0,8.0,48,0.00,,,0.00,WeatherCatV1.13B119,2013-01-19 22:24:00,
2013-01-19 14:39:00,58.0,37.9,30.09,NW,322,1.0,5.0,47,0.00,,,0.00,WeatherCatV1.13B119,2013-01-19 22:39:00,
2013-01-19 14:54:00,57.6,38.6,30.09,NW,304,1.0,3.0,49,0.00,,,0.00,WeatherCatV1.13B119,2013-01-19 22:54:00,
2013-01-19 15:09:00,57.5,39.0,30.09,NW,326,2.0,2.0,50,0.00,,,0.00,WeatherCatV1.13B119,2013-01-19 23:09:00,
2013-01-19 15:24:00,57.4,39.4,30.09,NNW,327,1.0,5.0,51,0.00,,,0.00,WeatherCatV1.13B119,2013-01-19 23:24:00,
2013-01-19 15:39:00,58.4,42.3,30.09,NNW,328,1.0,3.0,55,0.00,,,0.00,WeatherCatV1.13B119,2013-01-19 23:39:00,
2013-01-19 15:54:00,58.8,42.7,30.09,NW,324,0.0,4.0,55,0.00,,,0.00,WeatherCatV1.13B119,2013-01-19 23:54:00,
2013-01-19 16:09:00,59.5,40.8,30.08,NNW,347,0.0,4.0,50,0.00,,,0.00,WeatherCatV1.13B119,2013-01-20 00:09:00,
2013-01-19 16:24:00,57.6,39.6,30.08,NW,324,3.0,3.0,51,0.00,,,0.00,WeatherCatV1.13B119,2013-01-20 00:24:00,
2013-01-19 16:39:00,56.5,39.6,30.08,NNW,340,1.0,5.0,53,0.00,,,0.00,WeatherCatV1.13B119,2013-01-20 00:39:00,
2013-01-19 16:54:00,55.9,39.5,30.08,NNW,329,0.0,5.0,54,0.00,,,0.00,WeatherCatV1.13B119,2013-01-20 00:54:00,
2013-01-19 17:09:00,55.6,39.2,30.08,NNW,342,1.0,1.0,54,0.00,,,0.00,WeatherCatV1.13B119,2013-01-20 01:09:00,
2013-01-19 17:24:00,55.2,38.4,30.08,NNW,345,2.0,4.0,53,0.00,,,0.00,WeatherCatV1.13B119,2013-01-20 01:24:00,
2013-01-19 17:39:00,55.6,38.3,30.08,NNW,330,1.0,5.0,52,0.00,,,0.00,WeatherCatV1.13B119,2013-01-20 01:39:00,
2013-01-19 17:54:00,55.0,37.7,30.08,NNW,338,0.0,3.0,52,0.00,,,0.00,WeatherCatV1.13B119,2013-01-20 01:54:00,
2013-01-19 18:09:00,54.9,36.6,30.08,NNW,332,0.0,5.0,50,0.00,,,0.00,WeatherCatV1.13B119,2013-01-20 02:09:00,
2013-01-19 18:24:00,56.0,37.1,30.09,NNW,333,1.0,3.0,49,0.00,,,0.00,WeatherCatV1.13B119,2013-01-20 02:24:00,
2013-01-19 18:39:00,55.3,35.9,30.09,NNW,327,0.0,3.0,48,0.00,,,0.00,WeatherCatV1.13B119,2013-01-20 02:39:00,
2013-01-19 18:54:00,55.1,37.8,30.09,NW,313,0.0,3.0,52,0.00,,,0.00,WeatherCatV1.13B119,2013-01-20 02:54:00,
2013-01-19 19:09:00,54.9,35.1,30.10,NW,324,2.0,3.0,47,0.00,,,0.00,WeatherCatV1.13B119,2013-01-20 03:09:00,
2013-01-19 19:24:00,54.7,39.8,30.10,NNW,330,0.0,3.0,57,0.00,,,0.00,WeatherCatV1.13B119,2013-01-20 03:24:00,
2013-01-19 19:39:00,54.7,34.3,30.10,NNW,333,1.0,3.0,46,0.00,,,0.00,WeatherCatV1.13B119,2013-01-20 03:39:00,
2013-01-19 19:54:00,54.5,33.6,30.11,NW,323,1.0,3.0,45,0.00,,,0.00,WeatherCatV1.13B119,2013-01-20 03:54:00,
2013-01-19 20:09:00,54.8,32.7,30.11,NW,318,1.0,4.0,43,0.00,,,0.00,WeatherCatV1.13B119,2013-01-20 04:09:00,
2013-01-19 20:24:00,54.2,32.2,30.11,NW,318,1.0,2.0,43,0.00,,,0.00,WeatherCatV1.13B119,2013-01-20 04:24:00,
2013-01-19 20:39:00,58.2,40.2,30.11,NW,313,1.0,2.0,51,0.00,,,0.00,WeatherCatV1.13B119,2013-01-20 04:39:00,
2013-01-19 20:54:00,57.9,31.1,30.12,NNW,333,2.0,3.0,36,0.00,,,0.00,WeatherCatV1.13B119,2013-01-20 04:54:00,
2013-01-19 21:09:00,56.8,30.8,30.12,NNW,328,1.0,3.0,37,0.00,,,0.00,WeatherCatV1.13B119,2013-01-20 05:09:00,
2013-01-19 21:24:00,55.3,30.1,30.12,NW,325,2.0,2.0,38,0.00,,,0.00,WeatherCatV1.13B119,2013-01-20 05:24:00,
2013-01-19 21:39:00,56.9,30.2,30.12,NNW,333,2.0,3.0,36,0.00,,,0.00,WeatherCatV1.13B119,2013-01-20 05:39:00,
2013-01-19 21:54:00,55.3,29.5,30.13,NNW,330,2.0,2.0,37,0.00,,,0.00,WeatherCatV1.13B119,2013-01-20 05:54:00,
2013-01-19 22:09:00,55.3,29.5,30.14,NNW,327,1.0,3.0,37,0.00,,,0.00,WeatherCatV1.13B119,2013-01-20 06:09:00,
2013-01-19 22:24:00,54.2,29.2,30.14,NNW,333,2.0,2.0,38,0.00,,,0.00,WeatherCatV1.13B119,2013-01-20 06:24:00,
2013-01-19 22:39:00,53.3,29.0,30.14,NNW,328,2.0,2.0,39,0.00,,,0.00,WeatherCatV1.13B119,2013-01-20 06:39:00,
2013-01-19 22:54:00,53.0,28.7,30.14,NNW,328,2.0,3.0,39,0.00,,,0.00,WeatherCatV1.13B119,2013-01-20 06:54:00,
2013-01-19 23:09:00,53.5,28.5,30.14,NNW,343,2.0,2.0,38,0.00,,,0.00,WeatherCatV1.13B119,2013-01-20 07:09:00,
2013-01-19 23:24:00,53.3,29.0,30.14,NNW,337,1.0,3.0,39,0.00,,,0.00,WeatherCatV1.13B119,2013-01-20 07:24:00,
2013-01-19 23:35:00,53.1,28.8,30.14,NNW,337,1.0,2.0,39,0.00,,,0.00,WeatherCatV1.13B119,2013-01-20 07:35:00,
2013-01-19 23:39:00,53.0,29.3,30.14,NNW,336,2.0,3.0,40,0.00,,,0.00,WeatherCatV1.13B119,2013-01-20 07:39:00,
2013-01-19 23:40:00,53.0,29.3,30.14,NNW,337,1.0,3.0,40,0.00,,,0.00,WeatherCatV1.13B119,2013-01-20 07:40:00,
2013-01-19 23:45:00,53.1,29.4,30.14,NNW,337,1.0,2.0,40,0.00,,,0.00,WeatherCatV1.13B119,2013-01-20 07:45:00,
2013-01-19 23:50:00,52.9,29.2,30.14,NNW,336,1.0,2.0,40,0.00,,,0.00,WeatherCatV1.13B119,2013-01-20 07:50:00,
2013-01-19 23:55:00,52.9,29.2,30.14,NNW,336,1.0,2.0,40,0.00,,,0.00,WeatherCatV1.13B119,2013-01-20 07:55:00,